Probability
0 0 0 0 0 0 0 0 0 0 0 0 0 0 0 0 0 0 0 0 0 0 0 0 0 0 0 0 0 0 0 0 0 0 0 0 0 0 0 0 1 1 1 0 0 0 0 0 0
0 0 0 0 0 0 0 0 0 0 0 0 0 0 0 0 0 0 0 0 0 0 0 0 0 0 0 0 0 0 0 0 0 0 0 0 0 0 0 0 0 0 0 0 0 0 0 0 0
0 0 0 0 0 0 0 0 0 0 0 0 0 0 0 0 0 0 0 0 0 0 0 0 0 0 0 0 0 0 0 0 0 0 0 0 0 0 0 0 0 0 0 0 0 0 0 0 0
0 0 0 0 0 0 0 0 0 0 0 0 0 0 0 0 0 0 0 0 0 0 0 0 0 0 0 0 0 0 0 0 0 0 0 0 0 0 0 0 0 0 0 0 0 0 0 0 0
0 0 0 0 0 0 0 0 0 0 0 0 0 0 0 0 0 0 0 0 0 0 0 0 0 0 0 0 0 0 0 0 0 0 0 0 0 0 0 0 0 0 0 0 0 0 0 0 0
0 0 0 0 0 0 0 0 0 0 0 0 0 0 0 0 0 0 0 0 0 0 0 0 0 0 0 0 0 0 0 0 0 0 0 0 0 0 0 0 0 0 0 0 0 0 0 0 0
0 0 0 0 0 0 0 0 0 0 0 0 0 0 0 0 0 0 0 0 0 0 0 0 0 0 0 0 0 0 0 0 0 0 0 0 0 0 0 0 0 0 0 0 0 0 0 0 0
0 0 0 0 0 0 0 0 0 0 0 0 0 0 0 0 0 0 0 0 0 0 0 0 0 0 0 0 0 0 0 0 0 0 0 0 0 0 0 0 0 0 0 0 0 0 0 0 0
0 0 0 0 0 0 0 0 0 0 0 0 0 0 0 0 0 0 0 0 0 0 0 0 0 0 0 0 0 0 0 0 0 0 0 0 0 0 0 0 0 0 0 0 0 0 0 0 0
0 0 0 0 0 0 0 0 0 0 0 0 0 0 0 0 0 0 0 0 0 0 0 0 0 0 0 0 0 0 0 0 0 0 0 0 0 0 0 0 0 0 0 0 0 0 0 0 0
1 0 0 0 0 0 0 0 0 0 0 0 0 0 0 0 0 0 0 0 0 0 0 0 0 0 0 0 0 0 0 0 0 0 0 0 0 0 0 0 0 0 0 0 0 0 0 0 0
2 1 0 0 0 0 0 0 0 0 0 0 0 0 0 0 0 0 0 0 0 0 0 0 0 0 0 0 0 0 0 0 0 0 0 0 0 0 0 0 0 0 0 0 0 0 0 0 0
2 1 0 0 0 0 0 0 0 0 0 0 0 0 0 0 0 0 0 0 0 0 0 0 0 0 0 0 0 0 0 0 0 0 0 0 0 0 0 0 0 0 0 0 0 0 0 0 0
1 0 0 0 1 0 0 0 0 0 0 0 0 0 0 0 0 0 0 0 0 0 0 0 0 0 0 0 0 0 0 0 0 0 0 0 0 0 0 0 0 0 0 0 0 0 0 0 0
0 0 0 0 1 1 0 0 0 0 0 0 0 0 0 0 0 0 0 0 0 0 0 0 0 0 0 0 0 0 0 0 0 0 0 0 0 0 0 0 0 0 0 0 0 0 0 0 0
0 0 0 0 0 1 0 0 0 0 0 0 0 0 0 0 0 0 0 0 0 0 0 0 0 0 0 0 0 0 0 0 0 0 0 0 0 0 0 0 0 0 0 0 0 0 0 0 0
0 0 0 0 0 0 0 0 0 0 0 0 0 0 0 0 0 0 0 0 0 0 0 0 0 0 0 0 0 0 0 0 0 0 0 0 0 0 0 0 0 0 0 0 0 0 0 0 0
0 0 0 0 0 0 0 0 0 0 0 0 0 0 0 0 0 0 0 0 0 0 0 0 0 0 0 0 0 0 0 0 0 0 0 0 0 0 0 0 0 0 0 0 0 0 0 0 0
0 0 0 0 0 0 0 0 0 0 0 0 0 0 0 0 0 0 0 0 0 0 0 0 0 0 0 0 0 0 0 0 0 0 0 0 0 0 0 0 0 0 0 0 0 0 0 0 0
0 0 0 0 0 0 0 0 0 0 0 0 0 0 0 0 0 0 0 0 0 0 0 0 0 0 0 0 0 0 0 0 0 0 0 0 0 0 0 0 0 0 0 0 0 0 0 0 0
0 0 0 0 0 0 0 0 0 0 0 0 0 0 0 0 0 0 0 0 0 0 0 0 0 0 0 0 0 0 0 0 0 0 0 0 0 0 0 0 0 0 0 0 0 0 0 0 0
0 0 0 0 0 0 0 0 0 0 0 0 0 0 0 0 0 0 0 0 0 0 0 0 0 0 0 0 0 0 0 0 0 0 0 0 0 0 0 0 0 0 0 0 0 0 0 0 0
0 0 0 0 0 0 0 0 0 0 0 0 0 0 0 0 0 0 0 0 0 0 0 0 0 0 0 0 0 0 0 0 0 0 0 0 0 0 0 0 0 0 0 0 0 0 0 0 0
0 0 0 0 0 0 0 0 0 0 0 0 1 1 1 0 0 0 0 0 0 0 0 0 0 0 0 0 0 0 0 0 0 0 0 0 0 0 0 0 0 0 0 0 0 0 0 0 0
0 0 0 0 0 0 0 0 0 0 0 0 1 1 1 0 0 0 0 0 0 0 0 0 0 0 0 0 0 0 0 0 0 0 0 0 0 0 0 0 0 0 0 0 0 0 0 0 0
0 0 0 0 0 0 0 0 0 0 0 0 0 0 0 0 0 0 0 0 0 0 0 0 0 0 0 0 0 0 0 0 0 0 0 0 0 0 0 0 0 0 0 0 0 0 0 0 0
0 0 0 0 0 0 0 0 0 0 0 0 1 1 1 0 0 0 0 0 0 0 0 0 0 0 0 0 0 0 0 0 0 0 0 0 0 0 0 0 0 0 0 0 0 0 0 0 0
0 0 0 0 0 0 0 0 0 0 0 0 1 2 1 0 0 0 0 0 0 0 0 0 0 0 0 0 0 0 0 0 0 0 0 0 0 0 0 0 0 0 0 0 0 0 0 0 0
0 0 0 0 0 0 0 0 0 0 0 0 1 1 1 0 0 0 0 0 0 0 0 0 0 0 0 0 0 0 0 0 0 0 0 0 0 0 0 0 0 0 0 0 0 0 0 0 0
0 0 0 0 0 0 0 0 0 0 0 0 0 0 0 0 0 0 0 0 0 0 0 0 0 0 0 0 0 0 0 0 0 0 0 0 0 0 0 0 0 0 0 0 0 0 0 0 0
Wind_Speed
4 3 1 3 5 4 2 1 1 2 4 4 8 9 9 7 6 7 3 7 8 6 5 7 11 11 12 12 12 12 12 12 11 11 11 11 10 10 10 9 9 9 9 9 8 7 6 6 5
2 1 2 4 5 3 2 1 3 3 6 5 8 8 8 8 7 7 5 7 8 7 5 7 11 12 12 12 12 12 11 11 11 11 10 10 10 9 9 8 8 8 8 8 7 6 5 5 5
2 1 3 4 3 2 3 2 4 5 5 4 5 6 6 5 5 4 7 9 8 7 5 7 12 12 12 12 12 11 11 10 10 10 9 9 9 8 8 7 7 7 6 6 5 5 5 4 4
2 3 4 5 3 1 4 4 5 5 6 6 6 6 4 4 4 8 11 10 9 7 5 8 13 13 12 12 11 11 10 9 9 8 8 7 7 7 7 6 6 5 5 4 4 3 3 3 3
3 4 5 3 2 1 2 4 4 4 5 5 7 7 5 5 11 13 11 10 9 6 5 7 13 12 12 11 11 10 9 8 7 7 6 6 5 5 5 5 5 4 4 3 3 2 2 2 3
4 4 4 2 2 2 2 4 7 10 9 7 8 7 4 5 10 10 10 9 8 7 5 6 12 12 11 10 9 8 7 7 6 6 5 4 4 4 4 4 4 4 3 3 2 2 2 2 3
3 3 2 2 2 2 3 3 6 8 7 5 6 6 4 5 7 9 9 8 7 7 5 4 4 7 9 9 8 7 6 5 5 4 4 3 3 3 3 3 3 3 3 2 1 1 2 3 4
4 4 3 2 2 1 1 3 5 7 6 7 5 7 6 7 8 8 8 7 6 5 5 4 3 3 3 3 6 6 5 4 3 2 2 2 2 1 0 1 1 2 2 2 2 3 4 4 4
3 5 2 2 3 2 2 5 4 5 7 3 4 6 9 10 9 8 6 4 4 5 4 4 4 3 3 2 3 3 2 1 2 2 2 1 1 1 1 2 1 2 3 4 4 4 4 5 5
4 3 1 2 3 4 3 5 5 5 7 6 8 7 9 9 9 8 7 6 6 6 5 4 4 4 3 2 2 0 1 2 2 2 2 1 0 1 1 3 3 4 4 5 5 4 5 3 2
2 3 2 2 2 4 4 3 3 7 6 9 13 12 9 8 7 7 6 6 6 6 6 5 5 4 3 1 2 1 1 1 2 2 2 2 2 1 2 2 3 4 4 3 5 4 2 2 1
3 2 4 3 2 4 4 4 4 5 7 9 12 12 9 9 7 7 6 5 5 5 6 5 5 4 3 3 2 1 1 1 2 2 2 2 2 2 2 1 2 2 2 2 3 2 3 2 2
2 2 4 4 3 5 6 6 6 5 7 9 9 9 9 8 7 6 6 6 6 5 5 5 5 5 4 4 2 3 2 2 3 3 3 3 2 2 2 2 2 2 2 2 3 3 4 3 3
2 3 4 3 3 4 8 5 6 6 8 9 9 8 8 9 8 6 6 6 6 6 5 5 6 5 5 4 3 3 3 3 4 4 4 4 3 2 3 3 3 3 3 2 2 3 3 3 3
3 4 4 2 2 4 8 5 5 8 9 9 8 7 7 7 7 8 7 7 7 6 6 6 6 6 7 6 5 4 3 4 4 4 4 4 4 3 3 3 3 3 3 3 3 4 4 3 4
3 3 2 1 1 2 6 5 5 7 10 8 7 6 7 6 7 7 8 7 6 6 6 6 8 7 7 6 5 4 4 4 4 3 4 5 5 4 4 3 3 3 3 3 3 3 4 4 4
2 2 2 1 1 2 4 5 5 6 8 8 7 6 7 6 6 7 8 8 7 7 8 7 7 7 6 6 5 4 4 4 3 3 4 4 5 5 4 3 3 4 4 4 3 4 3 3 3
3 3 2 3 2 2 4 4 6 6 7 8 7 6 6 7 7 7 8 8 7 7 7 7 6 6 6 5 4 4 4 3 3 3 4 4 4 5 4 4 4 4 4 4 4 4 4 3 2
3 3 2 2 2 3 5 5 5 5 6 7 6 6 6 6 6 6 8 8 7 7 7 6 6 5 5 3 3 3 2 2 2 2 4 4 4 5 5 4 4 4 4 4 4 3 5 4 2
3 3 1 1 0 2 3 3 4 5 7 9 10 8 8 6 5 6 7 7 8 7 6 6 6 5 5 3 3 3 2 1 1 2 3 4 4 4 4 4 3 4 4 5 5 4 3 3 4
3 5 4 3 2 3 3 0 3 4 4 6 7 8 8 10 10 8 8 8 8 8 7 7 6 5 5 5 4 3 3 3 3 3 2 3 4 4 4 4 4 4 4 4 4 3 4 3 4
2 3 5 5 4 1 2 2 5 5 5 7 9 9 10 10 9 9 9 8 9 8 7 7 6 6 5 6 5 5 3 2 1 1 1 2 3 4 4 4 4 4 3 4 4 4 3 4 3
3 4 4 4 4 2 1 2 6 4 7 10 11 12 11 11 12 11 10 10 9 8 8 7 7 5 5 6 6 6 4 2 1 1 2 2 3 3 4 4 4 4 3 4 5 5 5 3 3
4 6 5 4 3 1 5 4 6 8 13 11 12 13 13 12 12 10 9 8 7 7 7 7 7 5 5 5 5 6 6 4 4 3 2 1 2 2 3 4 4 4 3 4 4 4 5 4 4
5 6 3 2 1 5 4 4 9 11 12 15 15 15 14 12 12 11 10 9 9 9 9 8 8 6 5 5 5 5 6 6 5 4 3 2 1 1 2 3 3 3 3 4 4 5 5 4 5
3 7 6 4 4 4 2 6 9 8 10 11 12 12 13 12 12 13 13 12 11 11 10 9 9 7 6 6 5 4 4 3 3 3 3 3 2 1 1 3 3 4 4 5 4 4 4 4 5
4 3 5 4 1 2 4 6 7 2 4 8 10 11 13 14 14 14 13 12 12 11 10 10 10 7 6 6 5 4 4 4 4 4 3 3 2 2 3 3 4 4 4 5 5 4 4 4 4
5 6 4 3 2 2 5 4 4 3 4 7 10 13 13 13 13 13 13 12 12 11 9 9 9 8 7 6 5 5 4 4 5 5 4 4 3 3 4 4 4 4 4 5 5 4 4 5 4
3 2 4 3 3 3 3 6 5 4 4 8 11 13 14 15 15 13 12 11 11 9 9 8 8 7 6 6 5 5 4 4 5 5 4 4 4 4 4 4 4 4 4 4 5 4 5 6 5
5 6 6 4 3 3 2 8 5 3 3 6 8 10 13 15 14 14 12 11 10 10 9 9 8 8 7 6 6 6 5 5 5 4 4 4 4 4 4 4 4 4 3 4 4 5 5 5 5
Wind_Direction
311 318 80 64 55 53 69 51 113 75 57 48 67 74 77 58 79 109 126 120 119 110 98 101 103 103 102 101 97 94 92 90 90 90 88 87 86 84 81 79 79 78 76 75 72 69 66 67 63
318 325 64 62 76 73 45 67 85 92 134 123 74 67 72 71 77 101 113 120 117 111 102 104 104 103 101 100 98 95 93 92 91 91 90 89 87 84 80 77 76 76 73 70 68 67 63 59 53
309 171 80 69 81 131 136 141 116 98 93 78 73 50 62 85 94 103 128 124 112 105 102 111 109 106 103 101 98 96 95 95 94 93 91 89 87 82 77 74 74 76 72 68 62 58 55 51 41
41 43 54 69 77 81 141 152 124 110 68 50 90 65 53 62 105 124 130 124 117 113 111 117 113 110 107 104 101 99 98 98 98 97 94 90 87 86 82 77 73 71 70 65 58 49 45 39 21
67 71 60 55 66 48 102 125 111 93 73 67 88 88 63 49 108 125 129 127 125 123 123 125 120 118 115 112 109 106 105 103 101 98 95 92 90 87 82 78 74 70 67 60 55 45 33 17 358
52 62 77 85 93 89 94 115 103 96 105 99 96 100 87 109 120 133 133 134 137 137 136 132 129 127 123 120 117 116 114 110 106 101 99 98 91 84 82 82 77 71 62 57 48 33 15 352 336
93 80 98 116 113 97 128 121 114 124 127 120 119 99 114 127 136 143 140 141 143 142 139 136 137 133 134 132 129 125 119 114 110 104 98 102 106 91 86 89 80 68 56 55 33 354 336 329 326
121 94 78 84 114 139 124 99 117 121 111 125 121 123 147 162 148 140 140 143 145 147 149 154 153 145 144 142 142 132 125 119 108 102 106 126 136 134 104 88 71 45 25 5 339 321 316 317 322
94 76 109 160 151 163 111 100 91 81 107 102 88 125 149 152 135 127 131 137 149 157 168 170 171 173 172 171 161 138 116 81 45 26 23 48 351 311 299 297 327 358 352 345 339 334 326 326 334
86 107 191 184 159 151 129 117 116 99 97 100 102 113 131 136 134 138 147 157 165 172 181 179 176 180 184 182 127 57 19 8 5 11 26 37 56 293 305 321 344 356 358 349 344 343 339 345 348
102 146 153 88 130 132 118 101 93 120 129 149 146 148 146 141 143 150 155 158 166 173 174 174 176 173 169 155 125 88 21 10 11 23 50 66 60 34 18 3 353 355 2 358 353 355 356 359 359
95 125 136 142 156 126 127 121 106 131 159 159 151 150 147 148 156 160 158 157 153 144 154 157 156 151 145 120 108 108 80 48 36 23 53 75 66 50 33 20 4 3 360 6 3 0 5 21 36
116 155 142 146 121 129 119 113 118 123 138 140 142 142 149 155 161 166 151 145 136 124 132 141 136 129 122 105 98 90 74 59 48 40 40 68 80 65 45 30 20 8 11 20 13 14 32 38 42
156 128 113 108 106 132 121 117 106 144 146 145 149 154 157 159 162 149 138 134 128 124 122 113 112 114 106 99 94 85 73 62 51 45 42 61 74 69 54 40 26 15 16 24 31 32 43 40 50
108 98 63 66 111 137 112 90 135 162 155 154 158 159 159 165 156 153 154 143 136 129 119 115 112 102 98 99 96 85 74 69 58 47 46 54 60 63 63 50 32 16 21 33 37 35 42 49 54
68 82 89 293 115 141 115 147 180 171 154 158 160 159 157 155 157 156 148 139 136 128 121 118 113 103 101 100 95 88 78 71 59 49 46 48 51 58 63 52 32 22 34 35 41 36 44 42 49
47 130 176 261 299 138 122 160 187 179 158 164 165 165 157 144 148 152 148 145 141 133 125 114 114 110 104 99 95 89 79 68 57 48 44 43 48 52 61 53 32 34 41 32 41 42 50 52 51
198 176 191 204 251 141 140 170 176 183 171 172 171 168 162 154 162 156 149 145 139 132 126 123 117 114 107 96 86 72 59 48 47 49 46 48 47 50 55 53 38 42 46 34 38 48 44 55 57
183 175 199 226 227 160 167 169 187 185 183 177 177 176 170 170 165 149 149 142 133 132 129 131 128 129 121 110 103 95 79 48 40 45 50 50 50 53 56 52 42 46 52 41 41 51 50 39 42
190 175 188 303 111 129 156 185 204 204 198 187 183 183 177 169 161 156 151 148 145 148 143 138 137 136 135 134 134 133 127 103 67 30 37 42 51 54 65 62 55 48 54 45 43 51 57 36 37
205 179 178 166 76 63 115 270 238 230 210 197 194 187 181 176 171 169 160 158 152 154 156 151 150 138 136 131 109 88 67 49 35 28 23 17 45 55 63 68 68 57 61 57 51 59 74 63 32
212 181 148 141 118 152 137 216 253 220 221 206 201 194 190 182 174 174 167 162 161 162 159 150 147 138 135 130 127 129 127 133 180 172 52 20 37 53 61 67 69 64 58 56 51 61 69 82 55
163 137 125 128 122 114 174 189 264 208 220 218 206 200 195 185 179 179 176 170 163 158 156 149 142 138 136 132 134 129 128 144 134 98 81 46 27 39 56 66 70 66 60 58 56 57 59 68 78
118 79 57 61 84 201 209 195 253 210 211 207 204 199 194 188 182 179 176 164 153 153 149 146 142 143 140 135 135 135 140 138 125 119 111 66 25 25 44 64 65 64 62 60 59 61 64 65 70
93 93 60 10 346 247 217 204 243 222 208 200 198 195 192 185 179 171 170 165 158 157 155 151 146 147 149 141 142 146 148 147 147 151 144 128 87 48 38 61 65 63 66 69 66 63 59 61 69
158 139 156 184 215 269 231 230 253 239 211 196 189 185 184 182 179 176 175 171 166 163 159 156 154 154 156 152 154 150 148 144 146 150 148 149 149 145 108 84 77 73 72 73 69 66 62 61 64
145 165 167 137 217 254 266 274 296 337 184 180 176 176 183 183 180 178 174 172 167 166 167 163 159 158 163 161 152 144 146 144 140 136 134 140 142 129 112 96 80 71 71 72 74 70 66 67 63
154 152 113 130 170 258 285 271 263 270 198 186 182 182 186 182 179 176 175 174 171 169 168 161 159 163 165 162 159 149 146 146 140 128 129 136 137 124 117 99 88 77 72 73 73 70 64 68 59
157 157 136 143 170 175 271 272 234 222 210 200 195 189 183 180 178 176 177 174 168 162 162 160 159 158 161 161 152 143 146 142 134 129 135 137 129 123 122 116 104 92 80 77 79 77 74 74 62
173 182 156 159 222 188 220 271 273 233 228 208 201 190 183 178 176 174 172 166 163 165 165 164 163 164 167 161 150 151 150 141 134 135 139 135 127 125 125 121 109 102 92 82 85 89 86 85 79